x

Frying Pan Shoals, Nc Buoy (41013) Wave Buoy

3:50 - Wed 1st Jul 2015 All times are EDT. -4 hours from GMT.

  • Sig Wave height 4.6ft
  • Swell Direction
  • Peak Period 6s
  • Average Period 5s
  • Wind
    18mph, 22mph gusts
  • Sea Temp 80°f
  • Aire Temp 80°f
  • Sea Pressure 1015.7mb
  • Frying Pan Shoals, Nc Buoy
  • Frying Pan Shoals, Nc Buoy

More Historic Weather Station data

Upgrade to MSW Pro to gain access to the past 30 days of data for over 8000 Wavebouys and Weather Stations around the globe.

Join Pro

Comparision Forecast

View Surf forecast
   
mié 07/01 3:50 4.5ft 6s 5s 18 22 mph 1015.7mb 80f 80f
2:50 5ft 7s 5s 18 20 mph 1016mb 80f 79f
1:50 4.5ft 6s 5s 18 20 mph 1016.2mb 80f 79f
12:50 4.5ft 6s 5s 18 22 mph 1016.4mb 80f 79f
11:50 4.5ft 5s 5s 20 22 mph 1016.3mb 80f 80f
10:50 5ft 5s 5s 20 25 mph 1016.1mb 80f 80f
9:50 4.5ft 6s 4s 20 22 mph 1016.1mb 80f 80f
8:50 5ft 6s 5s 20 25 mph 1015.9mb 80f 80f
7:50 4.5ft 5s 4s 20 25 mph 1015.7mb 80f 80f
6:50 5ft 5s 5s 20 25 mph 1015.4mb 80f 80f
5:50 5ft 6s 5s 20 25 mph 1015.3mb 80f 80f
4:50 5ft 6s 5s 22 27 mph 1015.4mb 80f 80f
3:50 5ft 6s 5s 20 25 mph 1015.3mb 80f 81f
2:50 5ft 5s 5s 22 27 mph 1014.9mb 80f 82f
1:50 5ft 5s 5s 20 22 mph 1015mb 80f 82f
12:50 4.5ft 5s 5s 20 22 mph 1015.4mb 80f 82f
mar 06/30 11:50 4.5ft 5s 5s 20 22 mph 1015.9mb 80f 82f
10:50 4.5ft 5s 5s 18 22 mph 1015.8mb 80f 83f
9:50 4.5ft 5s 5s 20 25 mph 1015.4mb 80f 83f
8:50 4.5ft 4s 4s 22 27 mph 1015.2mb 80f 83f
7:50 4ft 4s 4s 20 25 mph 1015.2mb 80f 83f
6:50 3.5ft 4s 4s 22 25 mph 1015.2mb 80f 83f
5:50 3.5ft 7s 4s 20 22 mph 1015.1mb 80f 83f
4:50 3.5ft 5s 5s 18 20 mph 1014.7mb 81f 83f
3:50 3.5ft 6s 4s 13 16 mph 1015.5mb 80f 82f
2:50 3.5ft 6s 4s 16
mph
1016mb 80f 82f
1:50 3.5ft 6s 5s 13 16 mph 1016.5mb 80f 82f
12:50 4ft 5s 5s 13 16 mph 1017mb 80f 81f
11:50 3.5ft 6s 5s 13 16 mph 1017.1mb 80f 81f
10:50 3.5ft 7s 5s 13 16 mph 1017.1mb 80f 81f
9:50 3.5ft 7s 5s 16 18 mph 1017mb 80f 81f
8:50 3.5ft 5s 5s 13 18 mph 1016.8mb 80f 81f
7:50 4ft 7s 5s 16 18 mph 1016.1mb 80f 81f
6:50 4ft 7s 5s 18 20 mph 1015.9mb 80f 81f
5:50 4ft 7s 4s 16 18 mph 1015.4mb 80f 81f
4:50 4.5ft 5s 5s 16 20 mph 1015.2mb 80f 81f
3:50 4.5ft 7s 5s 18 22 mph 1015mb 80f 81f
2:50 4.5ft 7s 5s 20 22 mph 1014.8mb 80f 81f
1:50 4.5ft 7s 5s 18 20 mph 1015.4mb 80f 82f
12:50 4ft 7s 5s 16 18 mph 1015.9mb 80f 82f
lun 06/29 11:50 4ft 7s 5s 16 20 mph 1015.8mb 80f 82f
10:50 3.5ft 7s 5s 18 20 mph 1015.7mb 80f 82f
9:50 3.5ft 7s 5s 18 20 mph 1015.5mb 80f 82f
8:50 3.5ft 8s 5s 16
mph
1014.8mb 81f 82f
7:50 3.5ft 8s 5s 13 16 mph 1014.8mb 81f 82f
6:50 3.5ft 7s 5s 16 18 mph 1014.6mb 81f 82f
5:50 4ft 7s 5s 16
mph
1014.4mb 81f 82f
4:50 4.5ft 8s 5s 11 13 mph 1014.2mb 81f 81f
3:50 4.5ft 7s 6s 9 11 mph 1014.8mb 81f 81f
2:50 4.5ft 7s 5s 7 9 mph 1015mb 81f 80f
1:50 5ft 6s 6s 9
mph
1015.3mb 81f 80f
12:50 4.5ft 7s 5s 4 7 mph 1015.5mb 80f 80f
11:50 4.5ft 7s 6s 7 9 mph 1015.6mb 80f 80f
10:50 4.5ft 7s 5s 9 11 mph 1015.2mb 80f 80f
9:50 4.5ft 7s 5s 11 13 mph 1015.2mb 80f 80f
8:50 4.5ft 7s 5s 11 13 mph 1014.9mb 80f 80f
7:50 4.5ft 8s 5s 16 18 mph 1014.3mb 80f 80f
6:50 4.5ft 7s 5s 18 20 mph 1014.1mb 80f 80f
5:50 4.5ft 7s 5s 13 18 mph 1013.8mb 80f 80f
4:50 5ft 8s 5s 18 20 mph 1013.2mb 80f 80f
3:50 5ft 7s 5s 20 22 mph 1013.1mb 80f 80f
2:50 5.5ft 8s 5s 18 20 mph 1013.5mb 80f 81f
1:50 6ft 7s 5s 20 25 mph 1013.8mb 80f 81f
12:50 6.5ft 6s 5s 20 22 mph 1014mb 80f 81f
dom 06/28 11:50 6ft 7s 5s 20 25 mph 1013.8mb 80f 81f
10:50 6ft 7s 5s 22 27 mph 1014mb 80f 80f
9:50 6ft 8s 5s 25 27 mph 1013.6mb 80f 80f
8:50 5.5ft 7s 5s 20 25 mph 1013.2mb 81f 82f
7:50 6ft 7s 5s 20 25 mph 1013.1mb 81f 81f
6:50 6ft 7s 5s 22 27 mph 1012.5mb 81f 82f
5:50 5.5ft 7s 5s 20 22 mph 1012.2mb 81f 82f
4:50 6ft 7s 5s 20 22 mph 1012.5mb 80f 82f
3:50 6ft 7s 5s 18 22 mph 1012.6mb 80f 82f
2:50 6ft 7s 5s 18 22 mph 1012.5mb 80f 81f
1:50 6ft 7s 5s 20 22 mph 1012.9mb 80f 81f
12:50 6ft 8s 5s 18 22 mph 1013.1mb 80f 80f
11:50 7ft 7s 6s 20 22 mph 1013.1mb 80f 80f
10:50 6.5ft 7s 6s 20 22 mph 1013.1mb 80f 80f
9:50 7ft 7s 6s 18 22 mph 1012.7mb 80f 81f
8:50 7ft 7s 5s 20 25 mph 1012.6mb 80f 81f
7:50 7ft 7s 5s 20 25 mph 1011.9mb 80f 82f
6:50 7.5ft 8s 5s 25 29 mph 1011.2mb 80f 82f
5:50 8ft 8s 5s 27 31 mph 1010.5mb 81f 82f
4:50 8ft 8s 5s 27 31 mph 1010mb 81f 82f
3:50 7.5ft 7s 5s 27 34 mph 1009.4mb 81f 83f
2:50 8ft 7s 5s 27 34 mph 1009.8mb 81f 83f
1:50 8ft 7s 6s 27 31 mph 1010.3mb 81f 83f
12:50 7.5ft 7s 5s 27 31 mph 1011.1mb 81f 83f
sáb 06/27 11:50 8ft 7s 6s 25 31 mph 1012.2mb 82f 83f
10:50 8ft 7s 6s 25 31 mph 1012.3mb 82f 84f
9:50 9ft 7s 6s 29 36 mph 1011.5mb 82f 84f